Temp
7 6 5 5 4 4 3 3 3 1 1 4 3 3 2 2 1 1 1 1 1 1 1 1 1 1 1 1 2 2 2 2 3 3 3 4 4 4
5 5 4 4 3 3 3 2 2 2 0 3 2 1 1 1 1 1 1 1 0 1 1 1 1 1 1 1 1 2 2 2 2 2 3 3 3 3
4 4 3 3 3 3 2 2 2 2 1 1 1 1 1 0 1 1 0 0 0 -0 0 0 0 1 0 1 1 1 1 1 1 1 2 2 2 2
3 3 3 2 2 2 2 1 1 1 1 0 0 0 0 0 0 -0 0 -0 -1 -1 -1 -1 -0 -0 -0 0 -0 0 0 1 0 1 1 1 1 2
3 2 2 2 1 1 1 1 0 1 0 0 -0 -0 -0 -0 -1 -0 -1 -2 -2 -2 -2 -2 -1 -1 -1 -1 -1 -0 -0 -0 0 -0 0 0 0 1
2 2 1 1 0 0 -0 -0 -0 -1 -1 -1 -1 -1 -1 -1 -2 -2 -2 -3 -3 -3 -3 -3 -3 -3 -3 -2 -2 -2 -1 -1 -1 -0 0 0 0 0
1 0 0 -0 -0 -1 -1 -1 -2 -2 -2 -2 -2 -2 -2 -2 -2 -3 -3 -4 -4 -3 -4 -4 -4 -4 -4 -3 -3 -2 -1 -2 -1 -1 -0 -0 0 0
-0 -0 -0 -1 -1 -2 -2 -1 -1 -1 -1 -2 -2 -2 -2 -3 -3 -4 -4 -4 -4 -4 -4 -4 -4 -4 -4 -4 -3 -2 -3 -2 -2 -1 -1 0 -0 -0
-0 -1 -1 -1 -2 -2 -2 -2 -2 -2 -1 -1 -2 -2 -3 -3 -3 -4 -4 -4 -5 -4 -4 -5 -4 -5 -4 -4 -4 -4 -3 -2 -2 -2 -2 -2 -0 -0
-1 -1 -2 -2 -2 -2 -2 -2 -2 -2 -2 -2 -2 -3 -3 -3 -3 -3 -3 -4 -5 -5 -5 -5 -5 -5 -5 -5 -5 -4 -3 -3 -3 -2 -2 -2 -1 -1
-2 -2 -2 -2 -3 -2 -3 -3 -3 -3 -3 -3 -3 -3 -3 -3 -3 -4 -5 -5 -5 -5 -6 -5 -5 -6 -5 -5 -4 -4 -4 -4 -4 -3 -3 -3 -2 -1
-2 -2 -2 -3 -3 -4 -4 -4 -4 -4 -4 -4 -4 -4 -4 -5 -5 -5 -6 -6 -7 -6 -5 -6 -6 -6 -5 -5 -5 -5 -5 -5 -5 -4 -4 -4 -3 -3
-2 -2 -3 -4 -4 -4 -4 -5 -4 -4 -5 -5 -5 -5 -6 -6 -6 -6 -6 -7 -7 -7 -6 -6 -6 -6 -6 -6 -5 -5 -5 -5 -6 -5 -5 -5 -4 -3
-3 -3 -4 -4 -5 -5 -5 -4 -4 -5 -5 -6 -6 -6 -6 -7 -7 -7 -7 -7 -7 -7 -6 -7 -6 -6 -6 -6 -6 -5 -6 -6 -5 -6 -5 -4 -4 -4
-4 -4 -4 -5 -5 -5 -5 -5 -6 -6 -6 -6 -7 -7 -7 -7 -7 -7 -7 -7 -7 -6 -6 -6 -6 -6 -7 -6 -6 -6 -5 -6 -6 -5 -5 -5 -5 -5
-4 -4 -5 -5 -5 -5 -6 -6 -6 -7 -7 -7 -7 -8 -8 -8 -8 -8 -8 -8 -8 -7 -6 -6 -6 -6 -7 -6 -6 -6 -6 -6 -6 -6 -6 -5 -5 -5
-5 -5 -5 -6 -6 -6 -7 -7 -7 -7 -8 -8 -8 -8 -8 -8 -8 -8 -8 -8 -8 -7 -7 -7 -6 -6 -7 -7 -6 -6 -7 -6 -6 -6 -6 -6 -6 -5
-5 -6 -6 -6 -7 -7 -7 -7 -8 -8 -8 -8 -8 -8 -9 -8 -9 -8 -8 -8 -8 -7 -7 -7 -7 -7 -6 -6 -6 -6 -6 -7 -7 -7 -7 -7 -6 -6
-6 -7 -7 -7 -7 -8 -8 -8 -8 -8 -8 -8 -8 -8 -9 -8 -8 -8 -8 -8 -8 -8 -7 -7 -7 -6 -6 -6 -5 -5 -7 -7 -7 -7 -7 -7 -6 -6
-7 -8 -8 -8 -8 -8 -8 -8 -8 -8 -8 -8 -8 -8 -8 -8 -8 -8 -8 -8 -8 -7 -7 -6 -7 -7 -6 -6 -6 -7 -7 -7 -7 -7 -6 -6 -6 -6
-8 -8 -8 -9 -9 -9 -9 -9 -9 -8 -8 -8 -9 -8 -8 -8 -8 -8 -8 -7 -6 -7 -7 -6 -6 -6 -6 -6 -7 -6 -6 -6 -6 -6 -7 -7 -7 -6
-9 -9 -9 -9 -9 -9 -9 -9 -9 -9 -9 -9 -8 -8 -8 -8 -8 -8 -8 -8 -7 -7 -7 -6 -6 -6 -6 -7 -7 -7 -6 -6 -6 -7 -7 -6 -6 -5
-9 -9 -9 -9 -9 -9 -9 -9 -9 -9 -9 -8 -8 -7 -8 -8 -8 -8 -8 -7 -7 -7 -6 -6 -6 -6 -6 -6 -6 -6 -7 -7 -7 -7 -7 -6 -6 -6
Height
866 868 870 871 873 874 877 878 879 882 882 879 879 876 874 873 871 870 868 865 862 859 856 853 850 847 844 841 838 833 830 826 823 820 818 816 813 812
867 869 871 873 873 874 876 878 879 880 882 878 879 876 872 870 869 866 864 862 858 856 853 850 848 845 841 838 835 831 827 822 818 815 813 810 810 808
865 870 871 873 873 873 874 877 877 879 878 877 876 873 869 867 865 863 861 858 854 852 849 845 843 839 835 831 827 824 821 817 814 811 809 807 804 802
864 871 869 873 873 872 875 875 875 877 876 876 873 872 868 866 863 860 859 856 854 850 847 843 840 836 834 829 823 820 816 812 809 807 804 802 800 797
866 868 872 872 872 873 875 873 874 875 875 874 872 870 866 864 860 859 856 852 850 847 843 839 836 832 829 824 820 815 812 807 804 802 799 797 794 792
866 868 871 873 872 873 875 872 874 873 875 873 871 867 865 862 859 856 852 850 845 842 839 836 833 828 824 819 814 810 808 805 801 797 794 791 788 785
865 868 869 872 872 873 873 871 874 874 873 872 869 866 862 860 858 854 851 847 844 839 836 832 828 824 820 815 810 807 803 799 795 792 788 785 781 778
867 868 869 870 871 871 871 872 874 872 871 870 866 864 862 860 856 852 849 847 841 839 830 825 824 819 815 812 808 805 800 795 789 785 781 778 774 772
866 867 870 870 871 870 871 872 872 870 869 869 865 863 859 858 854 850 846 844 840 835 831 823 821 816 813 807 799 794 792 788 784 781 776 771 768 765
864 866 869 869 870 871 870 870 869 868 868 866 864 860 859 855 853 849 844 841 836 832 828 820 816 811 807 801 795 790 787 784 781 776 771 767 763 759
862 866 867 869 871 870 868 867 867 866 865 864 862 859 857 853 850 846 842 838 833 830 826 821 815 808 800 795 789 785 784 777 774 769 765 761 756 753
863 865 866 869 870 869 867 865 865 865 862 860 860 857 855 852 848 845 841 837 834 825 823 821 813 809 796 790 786 778 776 771 767 763 759 755 751 748
862 863 865 866 868 866 865 865 865 864 861 859 857 854 853 849 846 843 840 836 831 826 821 817 809 806 803 786 778 777 772 764 760 755 751 748 745 743
860 862 863 863 864 864 864 864 864 862 859 858 855 852 850 846 843 839 835 831 828 822 816 814 808 802 796 786 777 771 767 760 756 750 745 741 739 736
860 862 862 861 862 862 863 864 864 861 857 855 853 851 848 844 840 835 831 827 822 816 808 806 801 796 794 784 776 768 762 755 749 745 740 737 734 730
859 861 858 859 862 863 862 862 861 860 858 856 853 850 845 840 836 832 827 821 816 808 806 799 795 792 786 779 774 763 759 753 745 740 736 731 728 725
857 857 857 861 863 861 861 861 861 859 856 855 852 846 842 838 834 827 823 820 811 805 799 792 787 785 779 773 767 760 752 746 741 736 731 725 721 718
855 858 859 861 863 862 863 862 859 858 855 852 848 844 840 835 830 825 820 815 811 802 795 787 782 776 769 763 763 754 748 742 735 730 726 721 715 711
857 859 859 861 863 863 864 862 859 855 852 848 845 839 836 832 829 820 817 812 804 798 789 784 778 773 765 757 750 750 743 736 729 724 719 715 710 705
859 859 860 863 864 864 862 859 855 851 848 845 843 838 832 833 823 818 813 806 799 791 783 777 773 768 762 755 746 737 735 731 725 718 712 708 703 698
859 862 861 861 861 861 859 855 853 850 849 844 840 833 831 825 817 814 807 800 794 786 779 771 765 762 756 750 743 734 726 725 721 714 707 701 695 690
861 861 858 858 858 858 858 853 851 847 845 840 833 829 825 820 814 807 801 794 786 780 772 765 758 754 749 744 737 730 723 716 711 706 703 699 692 683
860 858 856 855 857 857 856 851 848 845 842 834 830 825 820 815 809 802 795 787 780 772 766 758 753 749 743 739 734 726 720 713 706 700 691 689 685 679
Wind_Speed
13 11 8 7 6 5 4 3 3 1 2 1 10 13 18 19 20 18 22 20 21 22 23 23 24 23 25 25 26 26 26 25 25 25 25 25 23 23
11 10 8 6 5 4 4 2 1 1 2 4 21 19 19 18 19 22 20 27 23 21 25 25 25 26 26 26 26 26 27 26 25 25 25 24 23 23
12 8 7 6 6 4 1 1 1 4 8 20 18 20 19 22 22 20 26 22 22 28 27 27 29 27 28 26 25 25 27 26 25 25 25 25 24 23
12 9 7 5 4 3 1 1 3 6 9 14 20 19 21 21 20 24 20 18 24 24 25 27 27 28 29 27 31 30 27 27 26 26 26 26 25 25
12 10 7 5 4 2 2 2 5 7 9 14 17 18 21 18 24 19 21 28 26 23 25 24 24 26 30 30 29 28 26 26 26 26 25 24 24 24
11 8 6 4 3 2 1 3 5 9 11 13 18 19 18 23 20 22 23 25 25 28 24 24 25 27 27 27 27 27 26 26 27 27 27 27 25 25
9 6 3 1 0 1 4 6 9 9 12 15 14 16 18 22 20 23 22 22 26 18 27 30 29 32 33 29 29 25 27 30 31 31 29 26 25 24
8 7 4 4 4 4 5 7 9 12 12 13 19 17 21 19 25 23 22 22 15 23 32 31 28 30 30 31 27 30 34 32 29 27 27 28 24 24
9 8 7 3 4 3 7 7 9 9 11 15 17 18 21 25 26 23 23 22 21 28 26 28 27 29 26 28 32 32 29 25 25 26 30 25 21 22
9 7 5 4 4 6 9 11 11 13 14 14 15 16 21 23 22 23 25 24 24 22 21 24 27 26 32 30 30 24 21 26 35 31 29 29 28 26
9 5 4 2 5 7 10 12 13 13 12 14 18 18 19 18 19 22 20 20 21 23 27 21 23 32 27 29 22 18 34 30 32 30 29 29 29 28
8 7 6 5 7 9 10 12 12 15 20 21 19 16 17 20 16 18 22 21 23 18 12 25 26 24 21 16 27 29 32 33 32 30 30 28 26 27
9 6 4 6 9 10 10 9 13 16 16 15 16 21 22 20 24 25 24 23 24 23 30 28 27 27 21 30 26 32 33 35 35 34 32 28 25 25
8 3 2 7 9 9 10 12 13 12 14 17 21 21 20 24 29 26 24 25 25 28 32 29 26 28 29 29 29 35 35 34 31 33 31 29 28 25
6 6 5 8 9 11 11 11 12 15 17 19 17 18 23 26 26 27 27 28 28 31 29 29 29 32 29 30 33 34 35 37 32 25 31 32 30 30
4 5 8 9 8 8 10 13 15 16 16 19 20 22 24 23 25 25 27 26 26 29 34 31 29 31 30 30 32 33 33 25 32 31 30 30 29 28
9 8 9 8 9 12 13 15 17 19 20 20 21 22 22 23 24 24 24 26 24 27 31 32 34 34 34 33 31 31 32 30 28 29 29 29 28 27
9 8 8 9 11 13 15 17 19 19 19 21 22 23 22 23 26 27 26 25 26 29 30 31 31 30 30 29 22 27 26 27 31 30 29 25 26 28
10 8 9 8 9 11 13 16 19 20 21 23 24 24 25 28 26 27 27 25 27 30 32 30 27 25 11 12 31 24 25 29 30 28 27 25 27 29
7 7 6 7 9 11 14 17 21 22 23 23 26 26 25 24 25 26 27 27 28 29 31 31 27 25 20 13 26 39 28 26 27 26 25 27 30 30
6 5 6 7 9 12 15 18 21 21 21 24 23 22 24 25 27 28 30 32 32 30 29 30 33 32 33 32 20 28 34 27 24 27 29 25 23 24
4 6 7 8 11 12 16 19 20 22 24 24 25 27 29 28 29 31 31 31 32 31 32 35 33 29 26 22 23 26 25 32 35 28 24 23 23 8
6 8 10 10 11 13 15 19 19 20 22 27 29 32 33 32 33 33 33 33 33 33 30 29 31 28 26 22 24 25 27 28 28 27 33 26 23 24
Wind_Direction
136 133 130 126 123 109 100 81 101 15 302 353 3 337 342 336 340 335 336 338 332 333 332 332 329 328 324 321 317 315 312 312 307 304 304 302 302 300
133 133 129 122 105 86 76 70 59 300 265 300 322 328 334 339 336 337 335 329 337 336 333 331 329 327 325 322 319 315 311 310 308 303 300 299 299 300
138 144 142 135 137 131 143 273 306 288 289 301 315 325 330 334 338 339 330 340 337 330 332 330 328 327 325 323 321 319 317 312 307 303 300 297 296 296
140 150 128 149 135 109 205 297 312 298 297 303 315 323 330 336 333 331 337 335 328 329 329 326 325 326 325 323 320 318 315 311 307 302 298 296 293 292
144 143 160 152 131 183 268 330 323 314 310 312 313 323 328 333 335 335 327 329 334 331 328 326 328 324 320 320 321 320 320 314 309 304 301 303 296 291
146 149 146 162 174 222 329 356 329 323 327 330 322 324 327 331 330 328 331 332 329 331 328 323 325 324 324 324 321 317 316 313 310 306 303 301 294 292
131 128 149 170 119 35 1 347 336 329 324 317 315 320 324 329 335 332 325 328 326 332 326 322 325 327 326 325 324 318 316 316 311 306 303 299 296 294
143 140 98 84 56 29 5 336 313 317 319 316 313 309 319 330 327 326 321 323 324 325 326 320 324 319 318 318 315 312 313 316 314 307 302 296 294 292
144 132 119 99 36 345 343 327 319 324 317 315 318 320 322 321 320 313 313 312 308 315 317 312 319 312 314 313 310 309 314 316 318 319 318 318 302 298
134 124 120 92 52 355 343 326 329 326 324 322 320 321 316 315 315 317 315 314 312 312 318 306 314 308 312 309 311 313 321 320 315 313 314 310 306 303
114 116 85 87 19 355 336 330 328 332 326 322 319 317 317 319 320 321 335 331 320 319 317 309 316 311 312 308 315 320 316 317 315 315 312 311 305 300
110 105 89 51 5 353 348 342 339 336 333 330 332 333 324 323 327 329 329 328 321 319 321 319 315 322 319 314 316 320 316 315 314 311 310 309 308 298
127 105 95 26 1 357 355 354 342 334 337 337 332 330 332 332 329 328 325 318 310 299 304 312 310 312 307 310 313 312 312 311 308 311 313 311 309 300
117 114 5 13 8 11 7 351 344 343 342 338 336 336 333 329 327 326 324 322 318 305 311 312 298 305 307 305 305 309 308 309 309 306 312 317 315 307
93 53 44 25 21 16 9 358 352 349 348 346 340 333 329 324 323 325 324 324 322 319 318 317 309 306 299 297 299 301 306 308 308 309 307 307 309 310
85 75 49 44 29 19 9 0 354 351 344 339 334 328 325 321 318 319 317 318 316 313 319 320 315 310 297 295 293 295 300 297 301 302 299 300 301 299
92 68 54 36 22 13 3 355 349 349 342 335 326 324 321 319 318 321 320 319 313 310 311 314 316 310 299 289 288 292 294 296 300 301 303 299 297 293
85 75 55 32 18 6 355 347 345 339 333 330 325 322 319 322 323 323 321 316 309 306 305 306 307 304 306 301 292 293 295 295 299 300 297 291 292 296
85 67 46 20 358 350 342 336 331 335 336 334 330 328 327 324 320 317 312 309 306 302 301 303 305 302 300 299 310 312 306 299 297 294 291 283 285 289
68 47 22 352 345 335 330 333 339 341 338 333 331 330 326 313 312 312 307 305 301 300 301 304 303 299 294 299 309 307 314 300 296 294 295 296 291 291
49 19 354 342 330 328 333 338 338 337 328 328 327 324 318 316 310 304 302 303 305 302 298 300 301 306 301 299 296 303 310 312 307 303 303 297 292 290
25 356 352 341 337 334 331 337 333 328 324 324 329 325 322 312 304 302 299 297 298 297 295 297 302 307 300 290 291 298 305 314 321 319 306 296 291 283
15 6 358 347 332 323 320 336 328 317 323 336 332 329 322 309 307 302 299 298 297 297 296 299 306 306 299 291 299 304 306 311 315 316 315 319 309 300